Weather History for KAKR - October, 2012

Change the Weather History Date:

Monday, October 15, 2012

  Actual Average (KCAK) Record (KCAK)
Temperature  
Mean Temperature 56 °F 52 °F  
Max Temperature 64 °F 61 °F 85 °F (1897)
Min Temperature 48 °F 43 °F 29 °F (1937)
Degree Days  
Heating Degree Days 9 13  
Month to date heating degree days 165  
Since 1 July heating degree days 304  
Cooling Degree Days 0 0  
Month to date cooling degree days 3  
Year to date cooling degree days 649  
Growing Degree Days 6 (Base 50)    
Moisture  
Dew Point 45 °F    
Average Humidity 77    
Maximum Humidity 87    
Minimum Humidity 67    
Precipitation  
Precipitation 0.01 in 0.09 in 2.57 in (1954)
Month to date precipitation 1.38  
Year to date precipitation 32.03  
Snow  
Snow 0.00 in 0.10 in - ()
Month to date snowfall 0.1  
Since 1 July snowfall 0.1  
Since 1 September snowfall 0.1  
Snow Depth -    
Sea Level Pressure  
Sea Level Pressure 29.79 in    
Wind  
Wind Speed 13 mph (West)    
Max Wind Speed 26 mph    
Max Gust Speed 33 mph    
Visibility 10 miles    
Events Rain    
T = Trace of Precipitation, MM = Missing Value Source: NWS Daily Summary

Daily Weather History Graph

Daily Weather History Graph

Search for Another Location

Airport or City:

Trip Planner

Search our weather history database for the weather conditions in past years. The results will help you decide how hot, cold, wet, or windy it might be!

Date:

Astronomy

Oct. 15, 2012 Rise Set
Actual Time 7:37 AM EDT 6:44 PM EDT
Civil Twilight 7:10 AM EDT 7:12 PM EDT
Nautical Twilight 6:38 AM EDT 7:44 PM EDT
Astronomical Twilight 6:06 AM EDT 8:15 PM EDT
Moon 7:47 AM EDT (10/15) 6:42 PM EDT (10/15)
Length of Visible Light 12h 02m
Length of Day
11h 06m
New Moon, 0% of the Moon is Illuminated
Oct 15
New Moon
Oct 21
First Quarter
Oct 29
Full
Nov 6
Last Quarter
Nov 13
New

Hourly Weather History & Observations

Time (EDT) Temp. Dew Point Humidity Pressure Visibility Wind Dir Wind Speed Gust Speed Precip Events Conditions
12:54 AM 64.9 °F 55.9 °F 73% 29.60 in 10.0 mi SW 15.0 mph 26.5 mph N/A   Mostly Cloudy
1:54 AM 63.0 °F 55.0 °F 75% 29.62 in 10.0 mi SW 16.1 mph 32.2 mph 0.00 in   Overcast
2:43 AM 59.0 °F 48.2 °F 67% 29.68 in 10.0 mi West 26.5 mph 33.4 mph N/A   Overcast
2:54 AM 57.9 °F 48.0 °F 70% 29.66 in 10.0 mi West 21.9 mph 27.6 mph N/A   Overcast
3:17 AM 57.2 °F 48.2 °F 72% 29.69 in 10.0 mi West 16.1 mph 23.0 mph N/A   Overcast
3:54 AM 53.1 °F 46.0 °F 77% 29.70 in 10.0 mi West 15.0 mph 28.8 mph 0.00 in   Overcast
4:54 AM 53.1 °F 44.1 °F 71% 29.70 in 10.0 mi WSW 12.7 mph 20.7 mph N/A   Overcast
5:54 AM 52.0 °F 44.1 °F 74% 29.73 in 10.0 mi West 15.0 mph - N/A   Overcast
6:54 AM 52.0 °F 44.1 °F 74% 29.75 in 10.0 mi WSW 12.7 mph - N/A   Overcast
7:38 AM 51.8 °F 44.6 °F 76% 29.75 in 10.0 mi WSW 8.1 mph - N/A   Overcast
7:54 AM 52.0 °F 44.1 °F 74% 29.75 in 10.0 mi WSW 8.1 mph - N/A   Overcast
8:54 AM 53.1 °F 44.1 °F 71% 29.75 in 10.0 mi WSW 8.1 mph - N/A   Overcast
9:54 AM 53.1 °F 45.0 °F 74% 29.77 in 10.0 mi West 13.8 mph - N/A   Overcast
10:54 AM 53.1 °F 45.0 °F 74% 29.78 in 10.0 mi West 10.4 mph - N/A   Overcast
11:54 AM 53.1 °F 45.0 °F 74% 29.79 in 10.0 mi West 11.5 mph - N/A   Overcast
12:54 PM 53.1 °F 46.0 °F 77% 29.78 in 10.0 mi SW 10.4 mph - N/A   Overcast
1:54 PM 52.0 °F 46.9 °F 83% 29.78 in 9.0 mi West 10.4 mph - 0.01 in Rain Light Rain
2:13 PM 51.8 °F 46.4 °F 82% 29.79 in 10.0 mi WNW 13.8 mph 19.6 mph 0.00 in Rain Light Rain
2:54 PM 53.1 °F 46.0 °F 77% 29.79 in 10.0 mi West 8.1 mph - 0.00 in   Overcast
3:54 PM 51.1 °F 44.1 °F 77% 29.81 in 10.0 mi WNW 11.5 mph - 0.00 in   Overcast
4:54 PM 50.0 °F 45.0 °F 83% 29.83 in 10.0 mi NW 8.1 mph - 0.00 in Rain Light Rain
5:54 PM 51.1 °F 44.1 °F 77% 29.85 in 10.0 mi WNW 8.1 mph 17.3 mph 0.00 in   Overcast
6:54 PM 50.0 °F 42.1 °F 74% 29.86 in 10.0 mi NW 8.1 mph - N/A   Overcast
7:54 PM 48.9 °F 42.1 °F 77% 29.88 in 10.0 mi WNW 10.4 mph 17.3 mph N/A   Overcast
8:23 PM 48.2 °F 42.8 °F 82% 29.89 in 10.0 mi WNW 6.9 mph - N/A   Overcast
8:54 PM 48.9 °F 44.1 °F 83% 29.89 in 10.0 mi West 8.1 mph - N/A   Overcast
9:46 PM 48.2 °F 44.6 °F 87% 29.90 in 10.0 mi West 6.9 mph - 0.00 in Rain Light Rain
9:54 PM 48.0 °F 44.1 °F 86% 29.91 in 10.0 mi WNW 8.1 mph - 0.00 in Rain Light Rain
10:09 PM 48.2 °F 44.6 °F 87% 29.90 in 10.0 mi NW 6.9 mph - 0.00 in   Overcast
10:41 PM 48.2 °F 42.8 °F 82% 29.91 in 10.0 mi WNW 9.2 mph - 0.00 in   Overcast
10:54 PM 48.0 °F 43.0 °F 83% 29.91 in 10.0 mi WNW 9.2 mph - 0.00 in   Overcast
11:07 PM 48.2 °F 42.8 °F 82% 29.90 in 10.0 mi WNW 8.1 mph - N/A   Overcast
11:54 PM 48.0 °F 41.0 °F 77% 29.92 in 10.0 mi West 6.9 mph - N/A   Overcast